Location: Dugenta
(41.1333°N, 14.4500°E)
Time: 15:01:04
(UTC+00:00)

Okean 1-7 - Pass Details

Date: 03 March 2021
Orbit: 589 x 619 km, 82.5° (Epoch: 14 April)

Event Time Altitude Azimuth Distance (km) Brightness Sun altitude
Rises 17:59:10 0° 0° (N) 2,892 6.5 -12.8°
Reaches altitude 10° 18:01:34 10° 10° (N) 1,978 5.6 -13.2°
Maximum altitude 18:05:36 35° 77° (ENE) 983 3.6 -14.0°
Enters shadow 18:08:53 14° 139° (SE) 1,705 4.9 -14.6°
